Precipitable_Water
1.11 0.91 0.82 0.91 0.99 1.09 1.14 0.96 1.03 1.07 1.10 1.01 1.27 0.99 0.95 1.05 1.14 1.15 1.15 1.22 1.29 1.28 1.35 1.42 1.45 1.54 1.46 1.52 1.67 1.72 1.68 1.70 1.75 1.62 1.59 1.63 1.60 1.85 1.82 1.96 2.06 1.83 1.77 1.91
1.01 0.88 1.06 1.04 1.02 1.08 1.02 1.04 0.92 0.99 1.01 1.08 1.03 0.98 0.95 1.03 1.04 1.14 1.13 1.18 1.22 1.27 1.26 1.37 1.43 1.46 1.48 1.53 1.63 1.61 1.55 1.51 1.43 1.43 1.63 1.74 1.76 1.70 1.83 2.03 2.17 2.08 1.77 1.78
0.90 0.89 1.03 0.94 1.00 0.99 0.97 0.93 0.93 0.81 0.94 1.08 1.05 0.91 0.85 0.96 1.05 1.16 1.19 1.20 1.26 1.28 1.23 1.27 1.38 1.46 1.55 1.55 1.59 1.40 1.44 1.48 1.48 1.53 1.60 1.63 1.64 1.65 1.72 1.80 1.98 2.21 1.93 1.94
0.99 1.00 0.92 0.97 0.97 1.09 0.89 0.96 1.05 0.99 0.91 0.72 0.95 0.69 0.86 0.86 0.86 1.02 1.08 1.11 1.17 1.20 1.26 1.32 1.30 1.41 1.46 1.50 1.51 1.50 1.48 1.46 1.46 1.49 1.45 1.40 1.30 1.27 1.55 1.78 1.91 1.89 1.98 2.08
0.85 0.93 0.83 0.80 0.86 1.11 1.06 1.03 1.03 1.00 0.91 0.83 0.77 0.67 0.56 0.87 0.75 0.80 0.96 1.06 1.09 1.14 1.19 1.28 1.31 1.36 1.38 1.42 1.43 1.49 1.47 1.42 1.42 1.43 1.38 1.38 1.32 1.48 1.73 1.73 1.74 1.72 1.88 1.97
0.78 0.98 0.92 0.83 0.92 1.03 1.09 0.93 0.92 0.88 0.84 0.65 0.79 0.68 0.58 0.69 0.77 0.77 0.88 0.98 1.05 1.09 1.10 1.16 1.20 1.22 1.22 1.33 1.38 1.43 1.43 1.40 1.40 1.41 1.36 1.36 1.28 1.31 1.50 1.61 1.63 1.66 1.72 1.98
0.66 0.66 0.82 0.84 0.79 1.00 0.91 0.71 0.56 0.59 0.67 0.68 0.89 0.78 0.74 0.84 0.89 0.90 0.88 0.94 0.98 1.04 1.05 1.10 1.13 1.15 1.21 1.28 1.31 1.37 1.38 1.37 1.35 1.32 1.32 1.29 1.27 1.25 1.38 1.52 1.49 1.51 1.61 1.73
0.50 0.47 0.60 0.60 0.75 0.77 0.76 0.66 0.56 0.56 0.62 0.69 0.92 0.77 0.76 0.84 0.97 0.98 0.98 0.92 1.01 0.97 1.02 1.06 1.11 1.14 1.17 1.23 1.26 1.32 1.34 1.34 1.32 1.34 1.28 1.28 1.30 1.30 1.41 1.44 1.44 1.51 1.60 1.69
0.56 0.49 0.58 0.66 0.87 0.79 0.73 0.70 0.86 0.77 0.86 0.73 0.87 0.92 0.93 0.83 0.91 1.02 0.97 0.96 0.89 1.01 1.00 1.02 1.07 1.12 1.19 1.23 1.30 1.35 1.37 1.36 1.35 1.36 1.40 1.38 1.30 1.31 1.33 1.35 1.41 1.47 1.61 1.70
0.42 0.33 0.45 0.62 0.70 0.70 0.73 0.86 0.70 0.76 0.57 0.59 0.76 0.78 0.72 0.80 0.94 0.98 0.91 0.93 0.96 0.94 1.05 1.10 1.08 1.15 1.26 1.29 1.38 1.42 1.44 1.34 1.43 1.54 1.59 1.64 1.62 1.58 1.50 1.52 1.53 1.55 1.57 1.76
0.34 0.33 0.39 0.51 0.56 0.56 0.63 0.64 0.67 0.74 0.64 0.56 0.62 0.65 0.94 0.88 0.94 1.01 1.00 0.96 0.97 0.98 1.01 1.02 1.12 1.22 1.24 1.29 1.33 1.41 1.44 1.45 1.50 1.56 1.63 1.65 1.63 1.60 1.53 1.51 1.56 1.60 1.69 1.88
0.39 0.35 0.32 0.35 0.46 0.48 0.54 0.56 0.61 0.50 0.49 0.63 0.67 0.66 0.90 0.92 0.97 1.02 1.04 1.02 1.04 1.05 1.10 1.06 1.09 1.25 1.35 1.39 1.38 1.51 1.54 1.60 1.63 1.71 1.81 1.74 1.70 1.69 1.60 1.58 1.61 1.79 1.83 1.93
0.43 0.32 0.28 0.33 0.39 0.50 0.55 0.57 0.59 0.60 0.65 0.57 0.59 0.62 0.84 0.94 0.93 0.94 0.99 0.94 1.06 1.11 1.06 1.10 1.19 1.39 1.50 1.58 1.57 1.52 1.62 1.73 1.45 1.78 1.80 1.79 1.71 1.80 1.78 1.74 1.80 1.89 1.99 2.12
0.52 0.40 0.27 0.26 0.33 0.40 0.41 0.51 0.58 0.56 0.55 0.60 0.62 0.68 0.72 0.79 0.85 0.90 0.91 0.85 0.80 0.83 1.07 1.08 1.17 1.31 1.48 1.62 1.67 1.65 1.67 1.63 1.54 1.64 1.85 1.79 1.81 1.89 1.82 1.84 1.91 2.02 2.13 2.20
0.60 0.43 0.34 0.31 0.36 0.40 0.42 0.46 0.48 0.44 0.49 0.46 0.57 0.58 0.70 0.71 0.68 0.73 0.92 0.94 0.94 0.89 0.95 1.05 1.13 1.24 1.40 1.54 1.74 1.69 1.72 1.70 1.71 1.81 1.92 1.78 1.90 1.96 1.91 1.89 1.95 2.10 2.21 2.13
0.75 0.55 0.52 0.42 0.41 0.39 0.37 0.44 0.47 0.47 0.45 0.45 0.49 0.58 0.69 0.66 0.70 0.89 0.89 0.89 0.91 0.95 0.98 1.01 1.12 1.23 1.29 1.39 1.75 1.88 1.78 1.75 1.96 1.93 1.83 1.85 1.89 1.90 1.91 1.95 1.98 1.98 1.96 1.94
0.70 0.64 0.57 0.50 0.53 0.54 0.39 0.42 0.48 0.50 0.48 0.47 0.46 0.51 0.72 0.68 0.75 0.84 0.93 0.91 0.86 0.90 1.05 1.03 1.05 1.12 1.18 1.38 1.50 1.57 1.81 1.87 1.90 1.94 1.93 1.82 1.87 1.88 1.91 1.96 1.88 1.80 1.72 1.73
0.65 0.60 0.55 0.47 0.52 0.37 0.47 0.53 0.54 0.53 0.53 0.55 0.53 0.62 0.65 0.77 0.87 1.01 1.03 0.91 0.90 0.92 0.97 1.01 1.08 1.15 1.20 1.31 1.47 1.56 1.50 1.67 1.92 1.88 1.89 1.89 1.90 1.87 1.92 1.80 1.72 1.72 1.73 1.74
0.49 0.56 0.44 0.38 0.42 0.50 0.50 0.58 0.54 0.51 0.48 0.60 0.60 0.69 0.75 0.94 1.02 1.06 1.07 1.02 0.94 1.01 1.02 0.98 1.03 1.13 1.37 1.42 1.46 1.40 1.17 1.56 1.55 1.72 1.84 1.90 1.92 1.76 1.68 1.60 1.60 1.68 1.65 1.47
0.49 0.59 0.44 0.40 0.40 0.36 0.52 0.64 0.69 0.65 0.45 0.58 0.60 0.60 0.61 0.72 0.77 0.91 1.06 1.05 1.03 1.07 1.11 1.17 1.30 1.42 1.53 1.57 1.56 1.45 1.41 1.39 1.35 1.39 1.56 1.64 1.71 1.65 1.59 1.57 1.58 1.56 1.31 1.08
0.41 0.51 0.51 0.56 0.50 0.53 0.60 0.64 0.69 0.46 0.48 0.65 0.64 0.65 0.63 0.62 0.87 1.02 1.09 1.11 1.12 1.11 1.09 1.34 1.36 1.32 1.37 1.45 1.38 1.21 1.21 1.23 1.37 1.46 1.53 1.69 1.70 1.64 1.58 1.49 1.34 1.18 1.10 0.97
0.31 0.39 0.47 0.56 0.53 0.48 0.81 0.78 0.66 0.76 0.78 0.65 0.64 0.73 0.68 0.78 0.83 1.04 1.17 1.11 1.11 1.12 1.18 1.35 1.31 1.28 1.26 1.30 1.23 1.13 1.15 1.34 1.43 1.44 1.47 1.52 1.54 1.46 1.32 1.19 1.18 1.13 1.00 0.91
0.37 0.57 0.54 0.63 0.63 0.90 1.01 1.03 1.04 0.99 0.83 0.79 0.75 0.80 0.87 0.94 1.11 1.18 1.24 1.14 1.15 1.21 1.27 1.33 1.30 1.18 1.25 1.36 1.30 1.16 1.18 1.35 1.40 1.40 1.40 1.41 1.32 1.17 1.22 1.15 1.05 0.98 0.93 0.94
0.38 0.53 0.54 0.61 0.74 0.80 1.01 1.00 1.06 1.09 0.96 0.94 0.95 0.89 0.90 0.99 1.04 1.09 1.25 1.35 1.24 1.29 1.25 1.32 1.29 1.17 1.25 1.43 1.36 1.29 1.26 1.30 1.33 1.31 1.28 1.24 1.07 1.13 1.24 1.34 1.39 1.35 1.22 1.11
0.31 0.40 0.45 0.58 0.68 0.69 0.82 0.88 0.90 0.98 1.13 1.02 0.97 1.11 1.04 1.00 1.06 1.28 1.39 1.46 1.16 1.34 1.28 1.32 1.30 1.21 1.26 1.36 1.31 1.37 1.27 1.19 1.15 1.15 1.21 1.09 1.10 1.22 1.37 1.44 1.46 1.38 1.36 1.38
0.20 0.21 0.32 0.41 0.56 0.50 0.58 0.72 0.92 0.95 1.16 1.17 1.18 1.27 1.19 1.11 1.02 1.42 1.71 1.42 1.38 1.28 1.28 1.32 1.31 1.26 1.35 1.32 1.27 1.26 1.28 1.17 1.09 1.12 1.09 1.04 1.04 1.23 1.30 1.21 1.23 1.18 1.00 1.21
Wind_Speed
5 6 6 9 9 11 6 5 5 5 7 2 3 4 5 6 7 6 4 5 9 11 12 13 13 13 16 15 14 12 12 10 9 8 6 5 3 3 2 4 4 4 4 3
8 6 3 7 4 7 8 6 5 4 4 4 6 8 5 5 8 8 6 6 8 12 14 14 13 14 15 16 14 13 11 9 8 8 6 3 5 4 5 5 3 2 3 3
6 3 5 3 7 11 12 6 2 2 2 9 3 6 5 4 8 9 7 7 8 12 13 14 14 15 17 15 14 12 12 9 8 8 5 6 4 4 4 4 3 1 1 1
3 3 5 1 4 4 14 4 6 2 1 2 2 2 3 6 5 10 9 10 9 10 14 15 14 15 18 16 13 12 11 10 8 8 6 5 4 5 5 5 3 1 1 1
6 3 5 7 6 1 3 11 5 1 2 3 2 1 6 4 7 8 8 12 12 11 14 15 15 15 17 15 13 11 11 9 8 7 7 6 5 5 3 4 3 1 0 0
11 4 7 7 6 8 1 4 6 2 4 5 3 4 1 5 8 8 9 13 13 13 13 15 15 15 15 14 13 11 11 10 8 7 7 6 6 6 4 4 3 2 1 2
8 6 4 5 3 7 4 7 10 1 2 1 6 1 5 5 10 9 9 12 15 14 13 14 15 14 13 14 14 12 12 9 8 7 7 7 6 6 6 3 3 3 3 3
1 5 1 7 2 2 5 5 7 5 2 4 2 2 1 4 10 11 9 11 13 15 14 14 14 14 13 14 13 13 12 9 8 8 7 7 7 6 6 5 4 3 4 3
3 4 4 3 2 2 3 6 6 9 8 1 3 3 1 5 10 11 9 9 10 13 14 14 13 15 13 14 13 13 12 10 9 8 7 7 6 6 5 5 4 4 4 4
4 4 4 3 2 4 4 5 6 6 6 2 10 2 4 5 5 9 10 8 10 9 13 15 14 13 14 15 15 14 13 12 11 9 8 7 6 5 5 5 5 5 4 4
3 4 8 3 4 4 3 4 5 3 4 4 3 2 2 0 1 2 9 9 9 9 9 15 15 15 15 15 16 16 13 12 11 9 8 7 7 7 7 6 6 5 6 7
8 6 6 7 7 8 8 4 2 2 4 3 2 4 1 1 2 4 6 5 9 9 9 11 14 14 13 14 16 16 13 13 11 9 10 8 7 7 8 8 7 7 7 8
6 6 6 7 3 5 5 8 5 2 1 4 0 3 3 3 1 2 1 2 3 5 9 9 10 14 12 10 16 16 14 11 14 13 11 10 8 7 7 8 8 8 8 8
3 6 8 9 11 8 6 6 7 6 5 5 6 10 5 5 5 3 1 2 2 4 6 10 12 13 12 8 15 16 15 13 15 13 12 11 10 9 8 8 9 8 7 7
5 7 9 12 12 12 11 7 8 8 9 10 12 13 10 7 5 7 6 5 4 4 5 8 12 13 10 10 12 13 12 12 12 13 12 11 10 10 9 7 8 8 7 8
10 10 9 11 11 13 14 12 8 10 10 8 6 10 12 9 7 5 6 6 6 4 5 8 10 11 12 12 11 10 9 10 11 10 10 10 10 9 8 7 7 7 7 8
16 13 11 12 15 13 12 11 8 10 12 9 11 14 16 13 12 11 9 8 9 8 6 7 9 11 14 13 12 10 8 10 11 10 9 9 9 9 9 8 8 7 6 6
21 18 16 14 14 12 11 13 14 13 13 12 13 12 16 16 17 15 11 9 11 10 8 7 8 10 12 12 10 9 9 10 9 9 10 10 10 10 9 8 7 6 5 4
24 21 19 17 17 17 14 15 10 10 11 8 3 9 11 17 17 17 14 10 12 13 12 9 10 9 9 10 9 9 9 10 8 8 9 9 9 9 9 7 6 5 3 2
18 22 21 21 21 22 18 16 12 12 15 15 11 13 13 12 18 19 18 15 14 16 14 13 11 9 9 8 7 7 7 7 8 9 8 8 8 7 7 7 7 6 4 4
19 18 18 17 18 19 16 16 13 11 17 18 19 19 16 17 18 23 21 18 16 17 16 13 12 10 9 8 6 6 6 6 7 8 8 9 9 9 9 8 7 6 6 5
20 21 22 19 18 18 13 8 10 16 17 18 19 18 21 20 21 22 26 21 20 18 18 16 13 10 8 8 6 6 6 8 9 10 11 11 10 9 9 9 7 7 6 6
17 14 21 18 21 19 20 17 14 17 21 19 18 16 14 16 14 21 34 27 23 21 20 17 14 10 8 9 8 6 8 10 11 12 12 11 11 10 9 9 8 8 7 6
24 22 24 23 24 24 22 18 18 18 17 15 15 15 15 15 17 20 26 24 22 23 21 18 14 12 10 10 9 8 10 11 12 13 13 12 12 11 10 9 8 7 6 4
31 31 30 31 27 28 25 24 22 20 19 17 17 18 18 18 19 24 27 27 22 22 21 19 16 13 11 11 10 11 12 13 13 14 13 13 12 11 9 7 6 5 4 3
34 36 35 36 33 31 33 31 28 26 22 18 20 17 14 14 12 22 33 26 26 24 21 19 17 15 13 12 12 13 14 15 15 15 14 13 12 11 9 9 7 5 4 3
Wind_Direction
351 295 302 304 306 338 339 349 300 258 236 245 250 198 162 153 151 142 118 144 165 167 170 168 169 163 178 177 167 168 162 166 164 166 158 152 151 171 134 132 112 84 89 96
333 311 264 302 327 352 340 318 286 205 216 178 213 211 174 171 168 168 153 137 161 169 173 163 165 165 163 163 169 166 165 170 170 169 166 160 159 123 145 141 129 89 90 92
331 256 15 20 330 336 321 276 290 118 204 198 17 171 184 193 171 176 174 161 156 166 166 171 170 173 170 168 169 169 170 170 166 167 166 160 161 156 153 159 133 128 108 93
309 273 196 143 298 7 8 26 216 44 110 210 313 205 235 199 186 179 181 168 160 161 175 175 175 169 171 167 167 170 176 175 174 174 175 169 159 161 163 163 144 101 142 73
312 191 214 267 296 48 283 80 56 8 323 210 272 126 250 216 207 189 184 179 172 167 166 172 173 171 171 176 176 178 180 180 180 182 183 181 172 168 163 166 165 145 192 2
289 297 229 252 311 55 216 37 14 60 49 96 357 96 303 197 193 186 190 180 178 172 164 171 174 177 182 184 185 185 184 185 186 188 188 185 187 189 191 196 203 210 263 286
301 296 252 248 347 332 348 5 330 254 45 250 2 11 270 231 187 179 178 184 180 178 179 181 183 184 184 189 191 186 186 187 188 187 191 192 194 194 199 201 212 245 310 271
284 341 250 316 250 18 18 32 48 122 274 262 314 235 327 215 188 179 173 176 183 190 188 188 188 189 190 189 189 186 185 184 185 188 190 193 198 202 211 225 240 259 307 297
252 280 320 250 197 183 310 31 58 63 20 260 316 296 166 54 157 172 176 173 183 195 197 194 192 195 195 191 188 187 188 190 188 188 186 189 197 209 223 238 249 263 285 292
264 305 294 298 245 265 204 148 25 30 55 69 342 198 151 32 49 179 177 178 186 186 196 196 196 192 195 196 195 195 198 195 193 192 195 204 215 223 232 241 262 261 273 287
301 269 297 251 248 167 179 261 339 35 21 44 123 284 204 239 337 84 200 192 186 192 194 199 201 204 202 200 200 199 197 196 201 202 208 219 230 238 242 249 256 260 272 286
289 290 290 276 261 265 240 247 278 322 283 347 50 274 309 11 98 21 124 184 205 201 199 198 204 199 197 210 208 200 200 199 206 217 223 229 239 242 245 251 250 264 279 289
327 288 302 313 353 7 257 260 266 284 291 268 118 216 165 274 61 95 89 153 176 200 210 187 184 193 196 208 204 202 200 211 224 229 232 233 239 241 252 248 253 265 272 293
311 299 253 247 265 294 310 257 233 241 250 224 305 257 250 277 226 214 239 148 160 198 208 197 192 189 196 210 201 199 219 228 229 229 237 234 239 242 250 255 256 269 273 291
289 288 278 276 274 283 283 251 249 257 241 256 247 238 239 254 238 184 196 190 164 158 170 185 193 200 207 191 191 196 210 219 218 225 228 235 240 240 251 259 263 256 262 288
302 288 286 283 279 274 266 277 268 270 277 262 252 240 231 239 210 220 213 189 194 181 180 186 195 201 196 191 190 195 205 212 219 222 232 236 238 237 245 253 258 261 274 290
280 290 301 274 286 297 275 268 238 256 269 271 248 254 223 237 233 221 209 208 202 205 199 186 190 187 186 194 201 214 225 229 228 234 232 231 234 239 245 253 256 262 270 288
266 273 280 279 290 284 263 262 263 257 253 250 262 235 216 227 230 209 211 208 206 202 198 199 196 194 199 206 210 214 220 226 227 232 232 235 236 241 246 251 246 248 258 270
257 263 268 269 272 274 273 272 266 261 250 236 257 221 241 232 214 217 216 214 214 202 200 193 185 184 189 194 200 207 212 218 229 238 232 231 229 233 235 228 217 207 197 193
262 256 260 261 262 264 266 272 261 270 259 248 250 251 253 226 220 230 224 220 213 207 205 199 190 177 175 180 191 202 217 230 240 218 214 217 211 196 183 172 164 168 164 149
261 259 260 263 264 267 261 263 260 266 263 257 256 256 251 238 240 235 220 215 211 205 204 197 188 186 189 190 198 213 214 207 197 187 175 164 160 154 152 150 151 149 145 141
259 256 259 259 256 263 246 271 272 284 282 257 253 258 252 247 255 227 218 211 207 203 197 194 192 194 202 193 182 181 188 182 176 167 161 158 157 155 150 148 148 145 140 138
250 254 256 256 255 268 265 257 272 294 290 267 250 250 250 236 251 248 212 200 198 198 196 196 197 200 196 188 183 172 172 168 166 162 160 157 156 154 152 151 148 144 143 144
261 266 259 268 261 268 255 260 273 284 287 276 260 246 246 251 260 269 232 189 187 188 195 197 199 198 194 190 188 180 170 170 169 166 163 159 156 155 154 151 146 145 149 155
262 267 261 259 260 268 255 265 268 276 269 271 275 279 244 260 264 265 231 189 189 193 196 200 200 202 199 196 192 187 178 173 169 167 165 163 161 160 161 161 167 161 154 179
262 257 257 255 260 259 261 265 262 264 254 270 277 270 251 239 259 210 203 198 190 193 196 198 201 201 203 199 196 189 183 178 173 171 170 170 170 170 166 157 147 140 135 141